Location: Newark
(58.8333°N, 23.5833°E)
Time: 09:20:48
(UTC+00:00)

S-56A Canister/Altair - Pass Details

Date: 29 November 2019
Orbit: 633 x 2499 km, 38.9° (Epoch: 11 December)

Event Time Altitude Azimuth Distance (km) Brightness Sun altitude
Rises 16:06:51 0° 258° (WSW) 5,556 13.7 -17.4°
Reaches altitude 10° 16:12:16 10° 243° (WSW) 4,200 12.4 -18.1°
Maximum altitude 16:18:41 18° 206° (SSW) 3,110 11.0 -18.9°
Drops below altitude 10° 16:23:52 10° 167° (SSE) 3,261 10.7 -19.5°
Sets 16:27:21 0° 149° (SSE) 3,919 10.9 -20.0°
